Location: Doux
(49.5045°N, 4.4321°E)
Time: 12:51:10
(UTC+00:00)

USA 234 - Pass Details

Date: 23 May 2024
Orbit: 1100 x 1107 km, 123.0° (Epoch: 12 June)

Event Time Altitude Azimuth Distance (km) Brightness Sun altitude
Exits shadow 00:56:33 14° 154° (SSE) 2,667 4.9 -17.8°
Maximum altitude 01:01:59 47° 224° (SW) 1,423 3.5 -17.5°
Drops below altitude 10° 01:08:16 10° 298° (WNW) 2,964 5.6 -17.1°
Sets 01:10:53 0° 304° (NW) 3,924 6.3 -16.9°
